Weather History for Millington, TN

Change the Weather History Date:

Monday, March 31, 2014

  Actual Average Record
Temperature  
Mean Temperature 58 °F -  
Max Temperature 77 °F 66 °F 87 °F (2012)
Min Temperature 39 °F 48 °F 39 °F (2011)
Degree Days  
Heating Degree Days 7    
Growing Degree Days 8 (Base 50)    
Moisture  
Dew Point 40 °F    
Average Humidity 54    
Maximum Humidity 93    
Minimum Humidity 24    
Precipitation  
Precipitation 0.00 in - - ()
Sea Level Pressure  
Sea Level Pressure 30.05 in    
Wind  
Wind Speed 6 mph (SE)    
Max Wind Speed 12 mph    
Max Gust Speed -    
Visibility 10 miles    
Events      
Averages and records for this station are not official NWS values.
T = Trace of Precipitation, MM = Missing Value Source: NWS Daily Summary

Daily Weather History Graph

Daily Weather History Graph

Search for Another Location

Airport:

Trip Planner

Search our weather history database for the weather conditions in past years. The results will help you decide how hot, cold, wet, or windy it might be!

Date:

Astronomy

Mar. 31, 2014 Rise Set
Actual Time 6:47 AM CDT 7:20 PM CDT
Civil Twilight 6:21 AM CDT 7:45 PM CDT
Nautical Twilight 5:51 AM CDT 8:15 PM CDT
Astronomical Twilight 5:21 AM CDT 8:46 PM CDT
Moon 7:13 AM CDT (3/31) 8:35 PM CDT (3/31)
Length of Visible Light 13h 23m
Length of Day
12h 32m
New Moon, 1% of the Moon is Illuminated
Mar 31
New Moon
Apr 7
First Quarter
Apr 15
Full
Apr 22
Last Quarter
Apr 29
New

Hourly Weather History & Observations

Time (CDT) Temp. Windchill Dew Point Humidity Pressure Visibility Wind Dir Wind Speed Gust Speed Precip Events Conditions
2:15 AM 42.8 °F 41.1 °F 39.2 °F 87% 30.12 in 10.0 mi East 3.5 mph - N/A   Clear
2:35 AM 42.8 °F 41.1 °F 39.2 °F 87% 30.11 in 10.0 mi East 3.5 mph - N/A   Clear
2:55 AM 44.6 °F 43.1 °F 39.2 °F 81% 30.10 in 10.0 mi East 3.5 mph - N/A   Clear
3:15 AM 42.8 °F 40.1 °F 37.4 °F 81% 30.10 in 10.0 mi ESE 4.6 mph - N/A   Clear
3:35 AM 42.8 °F 40.1 °F 37.4 °F 81% 30.09 in 10.0 mi East 4.6 mph - N/A   Clear
3:55 AM 42.8 °F 40.1 °F 37.4 °F 81% 30.09 in 10.0 mi East 4.6 mph - N/A   Clear
4:15 AM 41.0 °F 38.0 °F 37.4 °F 87% 30.09 in 10.0 mi East 4.6 mph - N/A   Clear
4:35 AM 41.0 °F 38.0 °F 37.4 °F 87% 30.08 in 10.0 mi East 4.6 mph - N/A   Clear
4:55 AM 39.2 °F 35.0 °F 37.4 °F 93% 30.08 in 10.0 mi ESE 5.8 mph - N/A   Clear
8:50 AM 55.4 °F - 42.8 °F 63% 30.12 in 10.0 mi SE 8.1 mph - N/A   Mostly Cloudy
9:50 AM 60.8 °F - 41.0 °F 48% 30.11 in 10.0 mi SE 10.4 mph - N/A   Mostly Cloudy
10:50 AM 66.2 °F - 42.8 °F 43% 30.11 in 10.0 mi SSE 10.4 mph - N/A   Mostly Cloudy
11:50 AM 69.8 °F - 42.8 °F 38% 30.10 in 10.0 mi SSE 9.2 mph - N/A   Mostly Cloudy
12:50 PM 71.6 °F - 41.0 °F 33% 30.07 in 10.0 mi SSE 10.4 mph - N/A   Mostly Cloudy
1:50 PM 73.4 °F - 41.0 °F 31% 30.04 in 10.0 mi SSE 10.4 mph - N/A   Mostly Cloudy
2:50 PM 75.2 °F - 39.2 °F 27% 30.00 in 10.0 mi SSE 10.4 mph - N/A   Mostly Cloudy
3:50 PM 77.0 °F - 39.2 °F 26% 29.98 in 10.0 mi SSE 11.5 mph - N/A   Mostly Cloudy
4:50 PM 75.2 °F - 35.6 °F 24% 29.96 in 10.0 mi SSE 11.5 mph - N/A   Mostly Cloudy
5:50 PM 73.4 °F - 37.4 °F 27% 29.97 in 10.0 mi SSE 6.9 mph - N/A   Overcast
6:50 PM 73.4 °F - 39.2 °F 29% 29.98 in 10.0 mi SSW 5.8 mph - N/A   Overcast
7:50 PM 69.8 °F - 39.2 °F 33% 29.97 in 10.0 mi SSE 3.5 mph - N/A   Mostly Cloudy
8:50 PM 69.8 °F - 41.0 °F 35% 29.94 in 10.0 mi SSE 8.1 mph - N/A   Overcast
9:50 PM 69.8 °F - 41.0 °F 35% 29.97 in 10.0 mi SSE 3.5 mph - N/A   Overcast
10:50 PM 69.8 °F - 42.8 °F 38% 29.98 in 10.0 mi South 4.6 mph - N/A   Overcast
11:50 PM 69.8 °F - 46.4 °F 43% 29.99 in 10.0 mi SW 6.9 mph - N/A   Overcast